Theta_e
315 314 314 319 320 321 320 320 322 319 322 321 318 319 316 316 315 314 316 315 316 317 316 315 313 316 317 316 318 319 319 321 321 319 320 323 323 327 328 329 332 335 336 337 337 336 334 333 333 333 332 331 331 330 328 327 331 332 334 335 333 333 328 323 322 324 325 326 328 329 329 328 327 324 323 325 326 327 326 323 320 319 317 314 313 312 307 305 305 305 306 306 308 309 311 312 314
314 314 316 319 320 322 320 318 325 324 323 318 317 319 316 315 315 317 320 317 318 318 316 315 315 317 318 318 318 318 321 324 324 324 324 324 326 328 329 331 333 334 336 337 337 336 335 334 334 333 332 332 330 330 328 328 331 333 333 333 332 330 326 320 319 321 322 323 324 326 327 326 324 323 323 324 325 324 323 321 319 319 318 316 314 312 307 304 305 305 305 306 307 307 310 315 318
314 315 317 321 321 320 322 320 322 326 323 318 320 320 315 316 318 319 318 316 318 318 317 317 317 318 318 319 319 318 322 324 325 326 324 325 327 328 330 332 334 334 335 337 337 337 336 335 335 334 332 331 330 329 328 329 331 332 332 332 331 328 323 319 318 319 319 321 322 323 323 323 323 322 323 324 323 322 321 319 319 320 319 317 314 312 307 304 305 305 306 306 308 309 312 316 317
313 316 318 321 321 320 331 330 325 327 324 320 321 321 320 321 320 315 315 318 318 317 317 318 319 319 318 321 320 319 321 323 325 325 323 325 325 325 328 331 335 334 334 337 336 337 337 336 336 335 333 330 330 330 329 329 330 332 332 332 331 327 321 318 318 318 318 320 321 323 322 321 322 322 322 322 321 321 321 321 322 322 320 317 314 312 308 304 304 305 305 308 312 314 316 317 316
315 317 319 321 322 321 327 326 323 325 320 322 321 320 325 323 317 312 315 319 316 315 316 318 320 319 319 319 319 319 320 321 323 323 323 324 322 322 325 330 334 333 335 337 337 338 337 337 337 336 333 331 331 330 330 330 331 331 331 332 331 326 319 318 318 318 319 320 322 322 322 322 322 322 322 321 322 322 323 323 323 322 321 317 313 312 308 305 304 304 305 309 314 316 318 318 317
317 319 320 320 320 316 320 320 319 322 318 322 321 320 323 316 314 314 315 318 315 315 316 316 319 319 319 319 320 319 319 320 320 322 322 322 320 319 323 329 333 334 335 336 337 337 337 338 337 336 335 333 333 332 331 330 330 329 330 331 329 324 320 319 318 319 320 321 322 322 322 323 324 323 323 324 325 325 325 325 324 322 321 318 313 311 308 305 304 304 304 306 310 311 312 313 311
319 320 320 320 319 316 325 326 322 323 316 314 317 318 317 311 313 314 313 316 315 315 315 316 317 318 319 320 320 319 320 320 318 320 321 321 320 320 321 327 334 334 334 336 337 337 338 338 337 337 336 336 335 334 332 331 330 329 328 328 326 325 322 321 320 321 322 322 322 322 322 323 325 325 325 326 327 326 327 326 323 322 322 319 313 311 308 305 304 304 304 304 306 306 306 307 307
320 320 318 324 325 323 330 326 321 322 314 308 311 314 313 311 313 312 311 313 315 314 315 316 316 317 318 319 318 318 319 318 316 318 319 321 321 322 321 325 334 335 334 335 336 337 337 338 338 338 337 337 336 335 334 332 330 329 328 327 326 325 324 323 322 322 322 322 322 323 323 324 325 326 327 327 327 326 327 327 323 322 323 321 316 311 308 305 303 303 303 304 305 305 306 306 306
319 319 318 325 328 327 328 320 317 317 315 312 310 311 312 313 313 312 311 311 313 314 316 317 315 315 317 318 318 317 317 316 316 316 318 321 322 323 323 325 333 335 334 334 335 337 336 338 339 338 338 337 337 336 335 334 332 330 329 328 328 327 326 324 323 323 323 323 323 323 324 324 324 325 327 327 327 326 326 327 324 322 323 324 320 314 310 307 304 303 303 303 304 304 305 305 305
319 320 316 323 328 324 321 317 317 317 316 313 310 311 313 314 313 311 311 311 312 314 316 316 314 314 316 318 318 317 317 316 315 316 317 319 321 323 325 325 330 334 334 334 334 335 335 337 339 338 338 337 337 336 335 335 334 332 330 329 329 329 329 327 324 324 324 324 324 324 324 324 325 325 326 327 326 325 325 326 324 322 323 325 323 318 313 310 307 305 304 303 303 303 304 304 304
319 318 317 327 330 322 321 320 320 322 318 312 311 312 313 314 313 311 311 312 313 315 317 315 315 315 316 317 317 316 315 315 314 315 315 318 320 322 325 327 330 333 334 333 333 334 334 334 336 337 337 337 337 336 336 335 335 334 332 331 330 330 331 330 327 326 325 325 324 324 324 324 325 325 326 326 325 325 324 325 325 323 323 325 324 322 317 313 311 309 307 306 305 304 304 304 304
319 319 328 335 329 322 324 323 320 327 326 318 314 313 313 313 313 312 311 313 313 315 316 315 316 315 316 316 316 316 315 315 314 314 315 317 319 320 324 327 329 332 333 333 332 333 333 333 334 336 336 335 336 337 336 336 336 335 333 332 332 331 332 332 330 329 328 326 325 325 324 325 325 325 325 326 326 326 324 325 325 323 324 325 325 323 320 317 315 314 313 312 311 310 309 308 307
318 320 333 328 319 322 322 320 319 323 325 319 314 312 313 312 312 313 312 313 313 314 315 315 315 316 317 316 316 316 315 315 314 314 314 315 318 320 322 323 324 328 332 332 331 332 332 333 334 336 337 335 335 336 336 337 336 335 335 333 333 332 332 332 330 330 330 328 326 325 324 324 325 324 325 325 326 326 325 325 325 324 324 325 325 324 321 319 318 318 318 317 317 317 316 315 314
317 319 330 323 313 320 321 319 318 318 319 318 313 311 313 313 313 313 312 314 313 314 315 314 315 316 316 315 316 316 315 315 314 314 314 314 316 318 320 322 321 322 329 331 330 331 330 332 334 336 338 337 336 335 336 337 336 336 335 334 334 333 333 332 331 330 330 329 327 325 324 324 325 325 324 325 326 326 326 326 325 324 325 325 325 325 323 320 319 319 320 320 320 320 320 319 319
317 315 325 326 316 318 319 319 318 320 320 317 314 312 313 313 313 313 313 315 314 314 314 314 315 316 315 316 316 315 315 315 315 314 313 314 314 316 318 322 320 317 323 329 330 331 331 332 334 336 337 337 336 335 335 336 336 336 335 335 334 333 333 332 332 331 330 329 328 326 324 324 324 324 324 323 324 325 326 327 326 325 325 325 326 325 324 321 320 320 321 320 321 321 321 321 321
316 316 325 329 319 317 317 316 317 320 318 313 312 313 313 313 313 313 313 314 314 313 314 315 315 315 315 316 316 315 315 315 315 314 314 313 314 315 316 318 316 315 318 321 323 326 330 332 333 335 336 336 336 335 335 334 334 336 336 335 335 334 333 333 332 331 330 329 328 327 325 324 324 324 324 323 323 324 326 327 327 327 326 325 325 325 324 323 321 320 321 321 321 321 321 321 321
314 321 331 328 320 321 318 317 317 320 320 312 310 313 313 314 312 312 314 313 314 314 314 315 315 315 315 315 315 315 315 315 315 315 314 314 314 313 314 314 314 319 320 318 320 320 324 328 328 330 330 332 334 335 335 333 333 336 336 335 335 335 334 333 333 332 330 329 329 328 326 325 324 324 323 323 323 323 325 327 327 327 326 326 325 325 324 323 323 321 321 321 321 321 321 321 321
318 330 330 323 324 324 320 318 315 317 320 313 311 313 314 315 313 313 314 313 314 313 314 315 315 315 315 315 315 315 315 315 315 315 315 314 314 313 314 313 314 321 321 320 324 324 324 324 325 327 325 325 329 332 334 333 333 334 335 335 334 334 334 334 333 332 331 330 329 328 327 325 325 324 323 323 323 323 324 326 327 327 327 326 325 325 324 324 323 322 322 322 321 321 321 321 322
319 327 325 327 329 319 314 314 311 313 316 312 311 312 313 315 313 313 314 314 313 313 314 313 314 315 315 316 315 315 315 315 315 314 315 313 314 313 313 314 314 317 318 318 324 328 329 327 327 330 328 326 328 329 330 332 334 334 335 334 334 333 334 334 333 333 332 331 331 330 328 326 325 325 324 323 323 324 325 327 328 327 327 327 326 325 324 324 324 323 322 323 322 322 322 322 322
314 320 326 330 322 313 311 312 312 313 313 312 312 312 313 314 313 314 314 313 313 313 315 314 314 315 315 316 315 315 315 315 315 314 314 313 314 313 313 314 313 315 315 316 321 326 329 327 327 330 331 331 332 328 326 329 331 331 333 334 333 332 333 334 333 333 333 332 331 330 329 327 327 326 325 324 324 325 326 327 327 327 328 327 326 326 324 324 324 323 323 323 323 322 322 322 322
312 318 326 320 311 313 314 312 313 313 313 313 312 312 313 313 314 314 313 314 315 314 315 315 315 316 315 315 315 315 315 315 315 314 314 313 313 314 313 314 313 313 313 314 315 319 323 324 323 325 327 329 330 325 324 329 328 325 328 331 332 332 333 334 333 333 333 332 331 331 330 329 329 328 326 325 325 327 328 328 327 327 328 328 327 326 325 325 325 324 324 324 324 323 323 323 322
313 314 315 311 309 314 315 312 314 313 313 313 311 313 314 313 313 313 313 315 316 315 316 316 315 316 315 315 315 315 315 315 315 314 314 314 313 314 314 314 314 313 313 313 313 314 316 317 317 318 320 322 321 319 323 330 333 330 328 330 335 336 333 332 333 333 333 332 332 331 330 330 330 330 328 328 328 329 330 329 328 328 328 328 327 327 327 326 326 325 325 325 324 323 323 323 322
317 314 310 310 311 313 313 312 313 313 313 313 312 313 313 313 313 313 313 315 316 315 316 316 315 316 315 315 315 315 315 315 315 315 315 314 314 314 314 314 314 313 313 313 313 313 313 313 314 314 315 316 316 317 320 325 333 337 333 331 335 337 335 333 333 333 333 333 332 331 331 330 330 330 330 330 330 330 331 330 329 330 328 328 328 328 327 327 327 326 326 325 325 323 323 323 323
319 318 311 312 312 311 313 312 313 313 313 313 312 313 313 313 314 312 313 315 316 315 316 315 316 316 315 315 315 315 316 315 315 315 315 315 314 314 314 314 313 313 313 313 313 313 313 313 313 313 314 315 314 316 317 320 328 335 335 332 331 336 335 331 329 330 332 332 332 331 331 331 330 330 331 330 330 329 331 331 330 330 329 328 329 328 327 327 327 327 326 325 325 324 323 323 322
317 318 312 312 313 312 313 313 313 313 313 313 313 313 313 313 313 311 313 316 316 315 316 315 316 316 316 315 315 315 315 315 315 315 315 315 314 314 314 314 313 313 313 313 313 313 313 313 313 313 313 314 314 314 316 317 321 327 330 328 327 332 332 329 327 328 332 331 331 331 331 332 330 330 330 329 330 330 331 331 330 330 329 328 329 329 328 328 328 327 326 325 325 325 324 323 321
314 315 313 313 313 313 313 313 313 313 313 313 313 313 312 312 312 313 315 316 316 316 315 316 315 315 316 315 315 315 315 315 315 315 315 314 315 314 314 314 313 313 313 313 313 313 313 313 313 314 313 313 313 313 314 315 316 319 323 322 322 324 326 330 329 327 329 329 328 329 329 331 331 330 330 329 330 331 331 330 330 330 329 329 329 328 327 327 327 327 326 325 325 325 325 323 320
313 313 313 314 314 314 314 314 313 313 313 313 314 314 312 312 312 315 316 316 316 316 315 315 315 315 315 315 315 315 315 315 315 315 315 314 315 314 314 314 313 313 313 313 313 313 313 313 313 313 314 314 313 313 313 313 315 315 318 322 324 325 325 325 325 326 330 330 330 329 328 330 329 329 329 330 330 331 331 331 330 329 329 329 329 328 327 326 327 327 326 325 324 325 324 322 319
313 314 315 314 314 314 314 314 314 314 314 313 313 313 312 311 313 316 315 316 316 316 316 315 315 315 314 315 315 315 315 315 315 315 315 315 315 314 314 314 313 313 313 313 313 313 313 313 313 313 313 314 313 314 313 312 313 313 319 328 332 331 326 322 324 330 331 330 331 329 329 330 328 327 327 327 328 330 331 331 330 329 329 329 328 327 326 327 327 326 324 324 324 324 324 321 318
314 315 317 318 319 318 313 312 312 313 314 313 312 314 315 314 314 316 315 314 316 315 316 315 315 316 315 315 315 315 315 315 315 315 315 315 314 314 313 314 313 313 313 313 313 312 313 313 313 314 313 314 314 313 314 312 313 316 321 329 334 331 327 327 329 328 324 323 325 324 326 329 329 328 327 326 328 329 329 330 329 329 328 328 328 326 325 327 327 325 323 323 323 323 322 320 319
316 313 316 322 323 321 312 310 312 312 313 312 312 318 324 321 314 314 315 314 315 314 315 315 316 316 315 315 315 315 315 315 315 315 315 315 314 314 313 313 313 313 313 312 313 312 312 313 313 314 313 313 314 313 314 311 314 322 325 325 326 326 328 333 331 324 321 323 324 322 324 326 328 329 329 329 329 329 329 329 329 328 327 327 327 325 325 326 326 325 323 324 323 321 321 319 318
319 312 317 324 319 322 317 308 311 314 313 312 313 318 323 323 316 314 315 314 314 314 315 315 315 316 315 315 315 315 315 315 315 315 315 315 314 314 314 314 313 313 313 312 312 312 312 313 313 314 313 313 314 313 314 312 313 322 326 323 322 323 327 330 327 325 326 327 326 323 322 324 326 327 328 329 328 328 329 329 328 326 325 325 324 324 326 325 324 324 323 323 321 320 320 318 316
323 313 322 324 315 327 324 308 309 314 313 310 313 318 319 319 316 314 314 314 314 313 315 315 315 316 315 315 315 315 316 315 315 315 315 315 315 314 314 314 313 313 313 312 312 311 312 312 313 314 313 313 314 313 314 313 313 318 321 325 328 325 324 325 327 329 329 328 325 322 322 325 326 326 325 324 325 327 327 327 326 324 324 322 321 323 325 323 322 322 321 321 320 320 318 314 313
326 316 321 324 318 325 322 310 307 309 311 311 313 317 320 318 314 313 313 313 313 313 315 315 315 316 316 315 316 316 316 315 315 316 315 315 315 315 314 313 314 313 312 312 311 311 312 312 313 313 313 314 313 313 314 314 319 324 322 324 328 325 324 328 329 329 327 324 322 322 325 326 324 324 324 324 325 326 325 325 324 322 323 322 320 322 323 323 322 321 321 320 318 316 314 310 310
326 318 319 324 321 320 320 318 310 306 311 313 313 314 316 316 312 313 314 312 312 312 314 316 316 316 316 316 316 316 316 316 317 316 316 315 315 314 314 313 313 312 312 311 311 311 311 312 313 313 313 314 313 314 316 316 320 325 323 321 322 322 325 328 327 326 326 322 322 324 325 324 323 322 325 325 324 324 323 323 323 322 323 322 322 323 322 321 321 320 320 318 313 310 309 308 309
328 324 323 322 319 317 320 323 312 308 313 315 315 315 314 314 312 312 313 311 311 312 314 315 315 315 316 316 316 317 317 317 318 318 316 315 315 314 314 313 313 312 312 311 311 311 311 312 312 313 313 313 313 313 314 317 319 322 323 324 324 322 322 324 324 325 325 322 322 325 324 323 325 324 323 323 322 322 321 322 323 321 322 323 323 322 321 321 320 317 316 312 307 308 308 307 306
328 332 333 327 322 319 321 323 314 309 314 316 316 316 315 314 313 312 312 312 310 311 313 313 314 315 315 316 316 317 317 318 319 318 317 316 315 314 313 313 312 312 311 311 311 311 312 312 312 313 313 313 314 313 315 320 322 321 323 325 325 322 321 323 325 326 326 323 322 324 323 322 325 325 324 323 322 322 321 322 322 321 322 322 321 321 320 319 315 310 308 305 304 306 306 305 304
323 327 329 324 322 321 321 321 313 306 313 321 317 315 315 314 313 311 311 311 309 309 310 311 314 315 316 317 317 318 318 318 318 317 317 316 315 315 314 313 312 312 311 311 311 311 311 312 312 312 313 313 313 313 317 321 322 321 321 322 322 322 321 323 326 326 325 325 323 323 322 321 324 324 323 324 322 321 320 321 322 321 321 321 320 319 316 311 306 303 303 302 301 302 303 303 303
323 323 321 321 322 322 319 317 313 308 312 321 318 315 315 314 313 311 309 309 309 309 310 311 314 315 316 316 317 318 318 318 318 317 317 317 316 315 314 314 313 312 312 311 311 311 311 311 312 312 313 313 312 314 316 318 321 322 322 323 323 323 322 323 325 325 324 324 324 323 322 322 324 323 323 323 320 318 319 321 321 321 321 319 316 313 307 303 302 301 300 302 301 300 301 301 301
325 322 319 321 321 320 317 314 313 311 312 320 321 316 315 313 312 311 309 309 310 311 312 312 314 314 315 316 317 317 317 317 317 317 317 317 316 316 314 314 313 312 311 311 311 311 311 312 312 312 312 312 313 315 314 317 323 324 322 324 325 323 322 324 325 323 322 321 322 323 321 320 322 322 322 320 317 318 320 321 321 320 317 312 308 304 302 300 300 300 300 301 301 300 300 300 300
323 322 320 322 320 319 319 316 314 312 311 317 320 316 313 313 312 312 311 310 311 312 313 313 313 313 315 317 317 316 316 317 317 316 316 316 315 315 315 314 313 313 311 311 311 311 311 311 311 312 312 312 313 313 314 318 322 322 322 323 323 321 321 322 322 321 321 320 320 321 319 319 321 320 319 318 317 319 320 320 319 315 308 304 302 301 300 300 300 300 300 300 299 299 299 299 299
321 320 320 322 321 319 318 318 316 316 314 312 315 317 319 318 316 316 313 310 311 312 312 312 313 315 316 317 316 316 317 317 317 317 316 315 315 315 314 314 313 313 312 312 312 311 311 311 311 312 311 312 313 313 316 320 321 322 323 321 320 321 322 322 321 321 321 320 319 318 318 319 320 319 318 317 318 319 319 319 315 307 302 301 300 300 301 301 301 300 300 299 298 298 298 298 298
323 322 319 319 321 320 317 318 318 321 322 315 313 320 329 329 325 322 320 319 318 314 311 312 315 317 317 317 318 318 318 318 318 318 317 316 314 313 313 313 313 313 313 313 312 311 310 311 311 311 311 312 312 312 315 319 319 319 319 319 321 322 322 322 322 322 321 320 318 317 318 319 319 319 318 317 318 318 318 314 307 301 300 300 299 300 301 301 300 300 299 298 297 297 297 297 297
322 320 317 315 315 317 317 317 318 323 326 316 312 318 325 327 325 322 323 324 321 315 312 312 314 316 317 317 318 318 318 318 318 318 317 316 315 314 313 313 313 313 313 312 311 310 310 311 311 311 311 312 312 312 314 316 318 318 318 320 322 321 320 322 322 321 320 319 317 317 318 319 319 319 318 317 317 317 314 308 302 300 299 299 300 301 301 300 300 299 298 297 297 297 297 297 297
324 316 315 316 315 318 319 317 318 322 322 316 315 320 321 321 321 321 323 323 319 317 317 314 311 314 316 317 317 318 318 318 318 318 317 317 316 316 314 313 313 312 312 311 311 310 310 310 310 310 311 312 313 313 313 316 319 320 321 320 319 318 319 321 321 320 318 317 316 317 319 319 318 317 316 316 315 313 308 302 299 299 299 300 301 300 300 300 300 299 298 297 297 296 296 296 296
321 312 313 317 317 320 321 321 321 320 320 318 317 319 320 323 324 322 322 323 321 321 323 318 313 313 315 316 317 317 318 317 318 318 318 318 317 316 314 313 312 311 311 311 311 310 309 310 310 310 311 312 314 313 313 316 320 321 320 318 317 319 320 321 320 319 317 315 317 318 318 317 316 316 314 313 311 306 302 299 299 299 298 300 301 300 299 299 298 298 298 297 297 296 296 296 296
313 307 312 315 316 319 320 323 324 323 323 320 319 319 319 323 325 322 321 322 323 321 321 317 313 313 315 317 318 317 318 318 318 318 318 318 317 315 313 312 311 310 311 310 310 310 309 310 310 310 311 312 313 313 313 315 318 320 319 317 317 319 320 320 319 318 316 315 317 317 317 316 315 313 312 309 305 301 299 298 298 298 299 300 300 300 299 298 298 297 297 297 296 296 297 297 296
308 313 320 319 320 321 321 323 321 324 326 319 318 321 319 320 324 324 321 323 326 323 322 321 315 314 316 318 318 317 318 318 318 319 318 318 317 315 313 311 311 310 310 310 309 309 309 310 310 310 310 311 312 313 314 314 314 316 317 317 317 318 318 319 318 317 315 315 316 316 316 315 312 310 308 304 300 298 298 298 297 298 298 299 299 299 298 297 297 296 296 296 295 296 296 296 296
312 326 327 320 323 322 321 323 321 324 325 318 315 317 316 319 324 324 321 320 322 322 325 328 321 317 317 318 318 317 317 317 318 318 318 318 317 316 315 312 311 310 309 310 309 309 309 309 310 310 311 310 310 313 314 314 314 315 317 318 319 319 319 318 318 316 314 314 315 315 315 314 310 307 303 300 299 298 298 297 297 298 298 298 298 298 297 296 296 296 296 295 295 295 295 295 295
317 326 323 319 323 321 320 325 322 323 322 314 312 315 315 317 320 320 319 319 319 314 316 320 317 316 318 319 318 317 317 316 317 317 317 318 317 317 316 314 312 311 310 310 309 309 309 309 310 310 311 310 310 313 314 313 314 315 316 318 318 319 319 318 318 317 314 314 314 315 315 313 308 304 301 299 298 298 297 297 297 297 298 298 297 296 296 296 295 295 295 295 295 294 295 295 294
318 322 322 321 322 321 323 324 319 319 319 313 309 314 318 319 319 319 317 317 317 312 311 313 313 315 317 317 318 317 317 316 316 317 317 317 317 316 316 315 313 312 310 310 309 309 309 309 310 310 310 309 309 311 312 313 314 314 315 317 318 317 317 316 316 316 314 313 313 314 315 312 306 302 300 299 298 297 297 297 297 297 297 297 297 296 295 295 295 295 295 294 294 294 294 294 294
316 319 320 321 324 323 324 326 324 320 321 317 311 314 324 325 322 319 313 311 313 312 313 314 313 314 316 316 316 316 316 316 316 316 316 316 316 315 315 314 313 312 311 310 310 309 309 309 310 310 310 310 309 309 312 315 316 315 315 317 318 317 316 316 315 314 313 313 313 313 314 311 304 301 299 298 298 297 297 297 297 297 297 296 296 295 295 295 295 295 294 294 294 294 294 294 294
316 318 318 319 322 322 319 318 320 320 321 322 317 318 323 323 321 317 312 313 313 311 311 312 313 316 316 315 316 315 316 317 316 316 316 316 315 314 314 314 313 312 311 310 310 310 309 309 309 310 310 310 309 309 312 316 316 315 315 317 317 316 315 315 314 313 312 312 313 313 314 309 302 300 299 298 297 297 297 297 296 296 296 295 295 295 295 295 295 295 294 294 294 294 294 294 294
316 316 319 317 316 323 322 313 310 312 316 320 320 320 319 319 320 317 317 320 318 313 311 310 313 316 315 315 316 316 317 317 316 316 316 315 315 314 314 314 313 312 312 311 311 310 310 309 309 310 310 310 309 309 312 316 316 315 315 316 316 315 314 313 313 311 311 312 313 314 313 307 301 299 298 297 297 296 296 296 296 296 295 295 294 294 294 294 294 294 294 293 293 294 294 294 293
318 319 318 314 313 320 325 319 317 317 319 322 322 320 317 318 319 318 317 318 318 318 316 311 312 314 312 314 317 317 317 317 316 317 316 315 315 314 314 313 313 313 312 311 310 310 310 309 309 310 310 310 309 309 311 314 316 316 315 315 315 314 313 312 311 310 310 311 312 313 311 305 300 298 298 297 296 296 296 296 296 296 295 294 294 294 294 294 293 293 293 292 293 293 293 293 293
315 318 315 316 319 321 320 320 323 323 322 325 326 320 317 318 319 319 319 321 324 322 319 316 314 311 310 315 318 317 316 317 317 317 316 316 315 314 314 313 313 312 311 310 309 309 309 308 308 309 310 310 310 309 310 313 315 316 315 314 314 313 312 312 311 310 310 311 312 312 309 304 299 298 297 297 296 295 296 296 295 295 295 294 294 294 294 293 293 292 292 291 292 292 292 292 292
311 313 312 315 321 322 320 320 321 322 322 324 327 325 320 318 323 323 320 323 326 324 324 326 318 311 313 318 319 318 317 317 318 317 317 316 315 314 314 313 313 312 311 310 309 308 309 308 308 309 309 310 310 310 310 311 313 314 314 314 314 312 312 312 310 310 310 311 311 311 308 303 299 297 297 296 295 295 295 295 295 295 295 294 294 294 293 293 292 291 291 291 291 292 292 291 291
314 316 315 315 317 318 320 319 317 321 324 324 325 325 318 317 325 326 320 321 322 321 325 326 317 313 317 320 318 318 317 317 318 317 317 317 315 315 314 313 312 311 310 310 309 309 309 308 308 308 309 309 309 310 310 311 312 312 313 314 314 312 312 311 309 310 310 310 310 309 306 302 298 297 297 296 295 295 295 295 295 295 295 294 294 294 293 292 292 291 291 291 291 291 291 291 291
315 316 316 316 316 317 318 317 316 318 323 323 323 323 317 318 326 325 322 325 321 316 316 315 315 317 319 318 317 318 318 318 318 318 318 317 316 315 314 313 313 312 311 311 310 309 309 308 308 308 309 309 309 309 309 310 312 312 312 313 313 312 311 310 309 310 310 310 309 307 304 301 298 297 296 296 295 295 294 294 294 294 294 294 294 293 293 292 292 291 291 291 291 291 291 291 291
Wind_Speed
4 5 6 7 7 6 5 5 3 4 3 2 1 0 2 2 0 2 3 2 1 3 5 4 7 13 8 2 3 3 5 3 2 2 2 8 15 16 13 13 13 15 14 13 13 12 12 13 13 12 11 10 10 11 12 13 14 14 13 11 10 8 9 10 10 11 11 11 11 11 11 10 10 10 10 10 11 13 14 14 15 15 16 17 17 17 17 17 15 14 13 11 11 11 11 12 14
6 6 6 7 6 4 3 5 2 2 4 2 2 1 2 1 1 3 5 3 2 3 6 8 10 10 4 3 4 4 5 4 4 6 9 16 17 15 13 13 14 16 15 14 13 11 11 11 12 12 11 10 9 10 11 13 13 13 13 11 9 7 8 9 9 9 10 10 10 10 10 9 9 10 10 10 10 12 14 15 16 17 18 17 17 17 17 17 15 15 14 13 13 12 12 14 15
7 7 7 8 6 6 4 4 2 1 3 2 3 2 1 1 3 5 5 4 9 13 12 11 8 5 3 2 2 2 3 6 9 11 14 18 17 15 14 13 15 17 17 15 13 12 11 11 11 11 11 10 9 10 11 12 12 12 12 10 8 7 8 9 9 8 9 9 9 10 9 9 9 10 11 11 11 12 14 16 18 20 19 18 17 16 17 17 16 16 15 15 15 15 15 16 17
8 8 8 7 7 7 4 3 1 3 2 2 2 3 2 3 5 5 3 9 13 12 7 5 4 2 1 0 3 4 4 7 10 12 15 16 16 16 15 15 16 18 18 16 15 13 12 12 11 10 9 10 10 10 10 10 11 12 11 9 8 8 9 9 9 8 8 8 9 9 9 10 10 12 13 13 13 14 15 17 19 20 20 19 17 16 16 16 17 16 16 17 18 18 18 18 18
8 9 8 6 5 3 3 3 2 3 1 3 2 3 4 4 5 4 7 12 9 5 3 2 2 2 2 2 4 3 5 9 11 12 14 15 15 15 16 16 17 18 17 16 16 14 13 13 12 10 10 10 10 9 9 9 10 11 11 9 7 8 9 9 9 8 7 7 8 8 10 10 11 13 15 15 15 15 16 17 18 19 20 19 17 16 16 16 16 17 17 18 19 19 20 19 18
9 10 8 6 7 4 4 3 2 1 3 4 2 3 4 5 6 7 8 9 6 2 2 1 1 3 2 2 2 5 9 10 10 12 13 13 13 13 16 16 16 18 17 15 15 14 14 14 13 11 10 11 10 9 8 8 9 10 10 9 8 8 9 9 8 7 7 7 7 8 10 11 12 13 14 14 14 14 15 16 17 18 19 19 18 16 16 16 16 17 17 18 19 19 19 19 18
9 8 6 7 7 4 3 2 3 1 2 3 1 3 4 7 10 8 7 5 6 6 5 3 3 3 1 1 2 7 10 9 11 12 13 13 12 13 15 17 16 16 17 15 15 14 13 13 13 11 10 10 9 8 8 7 8 8 8 8 8 9 8 8 8 7 7 7 7 8 9 10 11 12 12 12 13 13 13 14 16 17 19 19 19 18 17 16 16 16 17 17 18 19 19 18 18
9 6 5 6 4 4 3 3 3 1 1 3 3 3 4 9 11 9 7 4 4 5 6 5 5 1 2 3 3 7 9 9 11 11 13 12 12 13 14 17 15 15 16 15 15 14 13 12 12 12 10 9 9 8 8 7 8 8 7 7 8 8 8 9 9 8 8 7 7 8 8 10 10 10 10 10 11 12 12 13 14 16 17 19 19 19 18 17 17 17 17 17 17 18 18 18 18
8 6 6 5 3 3 2 1 1 2 2 3 4 4 4 10 11 8 6 4 4 5 6 8 5 1 3 6 2 6 9 9 12 12 13 13 13 14 14 17 17 17 17 16 15 14 14 11 11 12 10 9 9 8 7 7 8 8 7 7 7 8 8 9 9 9 8 7 7 7 8 9 10 10 9 9 9 10 11 11 13 14 16 18 18 18 18 17 17 17 17 17 17 17 17 17 17
6 5 5 4 3 3 2 1 1 1 3 4 5 4 5 10 11 7 5 3 5 5 8 9 4 3 4 5 3 6 9 9 11 13 14 13 14 14 15 18 18 19 19 17 17 15 14 12 11 10 9 9 9 8 8 7 7 7 7 8 8 8 8 8 8 9 8 7 7 7 7 8 9 9 9 8 9 9 9 10 11 13 14 16 17 17 17 17 17 17 17 16 16 17 17 17 16
4 4 5 5 3 2 2 3 3 3 3 4 4 4 6 10 9 5 4 3 5 6 10 9 3 4 5 4 5 7 10 10 11 12 14 14 14 14 14 17 18 20 20 18 18 17 15 14 13 11 10 10 9 9 8 8 7 7 7 7 8 8 8 8 8 8 8 7 7 7 6 7 8 8 8 7 7 8 8 9 10 12 13 14 16 16 16 16 17 17 17 17 17 17 17 16 16
3 2 4 4 3 2 3 3 3 4 4 2 2 5 6 10 8 5 6 5 7 7 9 10 3 5 4 3 6 9 11 11 11 11 13 14 14 15 15 16 17 19 20 20 19 18 17 15 13 11 11 10 10 10 9 8 8 8 8 7 7 7 7 7 8 7 7 7 7 6 6 6 7 7 7 6 6 7 7 8 10 11 12 13 14 15 16 16 17 17 17 18 18 18 18 17 17
3 2 4 3 2 2 3 3 2 3 4 2 3 6 7 10 8 7 8 6 8 6 7 11 6 5 3 3 6 10 12 12 12 12 12 12 13 15 15 15 15 17 20 20 19 18 18 16 13 13 11 11 12 10 9 9 9 9 8 7 7 7 7 7 7 7 7 7 6 6 5 6 6 6 6 5 5 5 6 7 9 10 11 12 13 14 15 15 15 16 17 18 18 18 18 18 18
5 5 5 3 1 1 4 2 1 2 3 4 4 7 8 9 7 8 9 7 9 7 6 10 8 5 4 3 5 10 13 13 14 13 13 12 13 14 15 15 14 16 20 20 20 19 18 17 16 15 13 13 13 11 10 11 11 10 9 8 7 7 8 7 7 7 6 6 6 5 4 5 6 5 5 5 4 3 4 6 8 9 10 11 11 12 13 13 13 15 16 17 18 18 18 18 18
7 7 5 3 2 0 3 1 2 4 4 3 5 8 8 7 6 8 9 6 8 9 6 9 10 5 4 5 3 7 12 13 15 14 14 13 13 15 14 15 14 14 18 19 20 19 18 16 16 15 14 14 14 13 11 12 12 11 11 9 9 9 8 8 8 8 7 6 5 4 3 3 4 5 5 4 3 2 3 5 6 8 9 9 9 10 11 11 11 12 15 16 17 17 18 18 17
9 7 5 3 2 2 3 2 2 3 4 5 8 9 7 5 6 8 10 7 6 9 8 9 13 8 5 8 4 4 10 13 15 15 15 14 15 15 14 15 14 13 14 16 18 19 19 16 15 16 16 16 15 14 12 12 11 11 12 11 11 10 10 9 8 8 7 6 6 5 4 3 3 4 4 4 3 2 2 3 4 6 6 7 7 8 9 9 9 11 12 14 15 16 16 16 17
8 5 5 2 3 3 4 4 4 3 4 5 9 11 7 3 6 8 8 8 6 9 11 10 14 13 8 8 5 5 8 12 15 16 16 16 16 15 14 14 13 13 13 14 15 17 18 17 16 16 16 16 16 14 14 14 12 13 13 12 12 11 11 10 9 9 8 8 8 7 6 5 5 4 4 4 3 2 1 2 3 4 4 5 6 6 7 7 7 9 10 12 13 14 14 15 15
4 3 4 2 3 4 6 8 7 4 2 6 11 13 9 4 8 9 5 6 7 8 13 13 13 15 13 10 8 7 8 13 16 16 17 17 17 15 14 14 12 14 15 15 15 15 16 16 16 16 16 16 16 16 16 16 15 16 14 14 13 13 13 12 11 10 10 10 10 9 7 6 6 5 4 4 4 4 2 2 2 3 3 3 4 5 5 6 6 7 8 9 10 12 12 13 13
3 3 3 3 5 4 5 9 9 3 2 8 12 11 10 5 9 11 4 5 6 7 11 14 14 16 16 15 12 10 10 12 16 17 18 18 17 15 14 14 13 14 15 14 16 17 18 18 18 18 17 16 16 17 18 18 18 17 16 15 15 14 15 14 13 12 11 12 12 11 9 8 8 6 6 6 5 5 4 4 4 3 3 2 3 4 5 5 5 5 5 5 7 10 11 11 12
2 4 2 4 7 3 4 10 10 4 2 8 11 9 8 6 10 11 5 4 5 8 11 14 17 18 16 16 14 13 12 13 16 18 18 18 17 16 15 15 14 14 15 14 16 18 20 20 20 21 20 20 19 20 20 19 18 17 16 16 17 16 16 15 15 14 13 13 13 12 11 10 9 8 7 6 6 6 6 6 6 5 4 2 2 4 5 5 4 4 3 3 5 7 9 10 10
1 4 3 4 5 2 4 9 8 5 2 7 11 8 6 7 10 10 7 3 4 13 17 16 18 17 14 15 15 14 14 13 15 18 19 19 18 17 15 15 15 15 15 15 16 18 20 21 20 21 22 22 22 21 19 17 16 17 16 16 17 17 17 17 16 15 15 15 15 14 12 11 9 8 8 7 6 7 8 9 8 6 4 3 2 4 5 5 4 2 2 2 4 5 7 9 8
3 1 2 3 5 2 2 5 6 8 5 7 11 8 6 8 9 11 11 6 8 14 15 15 16 16 14 14 13 14 15 15 15 17 19 19 19 18 16 15 15 15 15 14 15 16 18 19 20 20 22 23 22 19 19 18 17 18 17 16 17 18 18 18 18 17 17 16 17 15 14 12 10 9 8 7 7 7 9 11 9 8 6 4 3 4 5 5 3 2 1 1 3 4 5 7 8
3 1 1 4 4 2 2 2 4 7 7 9 11 8 8 8 6 10 14 16 17 14 11 10 11 13 15 15 14 14 14 15 15 16 17 18 19 18 17 16 15 14 14 13 14 14 15 17 18 19 20 21 20 17 20 20 20 21 19 19 20 19 18 19 19 19 19 18 18 17 16 14 11 11 10 8 8 8 11 13 12 10 9 7 5 4 3 2 0 1 1 1 2 3 6 7 7
4 1 1 4 1 2 1 1 3 6 5 7 8 7 7 7 6 6 15 24 23 19 16 13 11 10 12 15 16 16 15 15 15 15 16 18 18 18 18 17 16 15 14 14 13 14 14 15 16 17 18 19 18 17 19 21 23 24 23 24 23 21 21 22 22 21 20 19 18 17 17 16 13 13 12 9 9 9 10 15 14 10 9 7 6 6 3 2 4 4 2 3 3 2 4 5 7
4 2 3 4 1 1 1 1 3 4 3 5 6 6 4 6 6 7 19 25 21 20 21 19 18 16 15 16 16 16 17 17 16 16 17 18 19 19 19 18 17 16 15 15 14 14 13 13 14 15 16 17 17 18 19 22 24 27 27 28 27 26 26 23 21 21 20 20 18 18 18 16 14 15 14 11 11 10 10 16 14 10 9 8 7 7 4 4 6 6 5 6 5 1 1 5 8
2 4 4 3 2 2 2 2 4 4 2 4 5 4 2 4 4 10 22 24 21 22 22 21 21 21 20 19 18 18 18 18 17 18 18 19 20 20 19 18 18 16 16 16 16 15 14 13 13 13 14 15 17 19 20 21 23 26 28 27 25 25 25 23 21 19 21 21 18 18 18 17 16 16 15 13 12 11 11 15 13 10 11 10 10 9 5 4 7 8 8 8 6 4 1 6 8
3 5 5 3 3 2 1 3 3 3 3 3 5 3 3 2 0 8 16 13 15 19 21 22 21 21 21 20 19 19 19 19 18 19 20 20 20 20 19 18 18 17 18 18 17 16 15 14 14 14 15 15 17 19 20 20 21 23 23 22 22 20 21 22 19 16 18 19 16 14 16 17 18 16 15 14 12 11 11 13 11 9 11 12 12 10 6 6 9 11 11 10 9 6 1 5 7
4 4 3 3 5 2 2 2 3 3 2 3 4 2 4 0 2 14 19 12 12 14 16 19 20 20 19 19 20 20 20 19 20 21 21 21 20 19 19 18 18 18 19 20 19 18 18 16 16 16 16 16 17 18 19 19 20 21 20 20 21 20 20 19 15 16 17 16 15 14 13 13 15 15 15 13 12 12 12 12 12 11 11 12 14 10 8 9 10 12 11 10 9 5 1 5 4
5 5 2 4 8 3 3 2 3 3 1 1 2 2 5 3 10 22 20 15 16 16 17 18 18 19 19 19 19 20 20 20 21 23 21 21 20 20 19 19 19 19 19 21 21 20 19 18 18 17 17 17 17 17 18 19 20 19 20 23 24 21 20 20 19 19 18 17 17 17 15 15 15 13 12 13 14 13 13 13 13 13 11 12 15 11 9 11 11 12 12 10 7 3 2 4 2
3 5 2 3 7 4 2 1 2 3 2 3 4 2 6 7 18 24 16 15 16 17 19 19 19 19 19 20 20 20 20 21 22 22 21 21 21 21 21 21 21 21 21 22 22 21 20 20 19 17 17 17 17 17 18 18 19 19 21 24 24 22 22 24 21 19 20 19 16 15 15 18 18 14 11 13 14 14 15 16 14 13 12 14 14 10 10 12 10 9 9 8 6 3 4 4 2
1 2 2 2 2 4 4 1 4 4 4 6 5 3 6 8 15 15 14 18 17 19 20 18 19 19 19 20 20 21 20 21 23 22 22 23 23 23 23 23 24 23 23 23 23 22 21 21 19 18 17 17 17 17 18 18 19 22 24 21 20 22 24 24 21 21 21 18 14 11 11 16 19 17 16 16 15 15 17 16 14 13 13 13 12 11 12 11 10 10 10 9 8 6 6 5 4
3 1 2 3 1 5 7 1 5 3 2 6 5 3 6 9 13 9 10 15 15 20 21 19 20 19 19 20 20 21 21 22 23 23 24 25 25 25 25 26 25 24 24 25 25 23 22 22 20 19 18 17 17 17 18 18 16 18 20 19 19 20 20 21 19 20 20 16 13 12 11 15 18 16 18 18 16 16 15 14 14 13 12 11 11 14 14 12 12 12 11 9 7 7 6 6 6
4 1 2 1 1 3 5 2 2 1 2 4 3 3 4 5 6 3 3 8 12 17 19 19 20 19 19 20 20 22 22 23 24 25 26 26 27 27 27 27 26 24 25 26 26 24 24 23 21 20 19 18 17 17 18 17 14 16 18 18 22 20 18 19 18 17 16 12 12 13 14 15 14 13 16 17 15 14 13 13 13 11 13 11 11 15 15 13 13 11 10 8 6 6 6 6 8
3 2 0 3 2 2 3 3 2 1 2 3 3 4 8 8 8 9 7 8 10 14 19 19 19 20 20 20 22 23 23 24 25 25 25 26 27 28 28 28 27 25 25 26 26 25 25 23 22 21 20 18 18 17 18 18 17 21 20 17 20 21 21 21 18 17 17 15 14 16 17 16 15 15 16 16 14 15 14 13 11 12 16 15 12 15 14 13 12 9 9 9 7 6 7 8 9
3 2 1 2 2 2 4 3 2 1 1 3 3 5 12 13 14 22 21 16 15 19 22 24 24 25 25 25 27 27 28 28 27 25 25 26 27 28 29 28 28 27 26 27 26 27 26 24 24 22 21 19 18 18 18 19 19 20 18 17 19 20 21 22 21 21 20 17 15 17 17 17 18 18 16 15 14 15 16 15 13 14 16 15 15 15 14 13 12 11 9 10 11 10 8 9 9
6 6 4 3 3 4 5 5 4 2 1 5 7 8 13 13 12 19 22 17 17 22 25 28 30 30 31 31 32 32 33 32 30 28 26 26 28 29 30 29 29 28 27 28 27 28 27 26 25 24 22 20 19 19 17 20 21 19 19 20 21 21 20 21 22 21 20 17 17 19 16 16 18 18 16 16 15 15 16 16 15 15 16 16 15 15 14 12 12 12 11 11 12 12 11 10 8
7 5 4 3 3 5 5 3 5 1 2 6 7 7 12 14 11 16 21 16 15 21 25 29 32 33 34 34 35 36 36 35 32 31 30 28 29 30 31 31 30 29 29 29 29 29 29 27 26 25 23 21 20 19 19 22 24 22 22 23 23 23 21 21 22 20 18 18 20 20 16 16 19 18 17 18 17 15 16 18 17 17 18 17 15 13 14 14 14 14 14 12 9 8 10 11 10
5 5 2 1 3 6 5 2 4 1 3 5 4 5 12 14 12 17 19 11 15 24 26 30 34 35 36 36 38 39 38 37 35 35 34 31 31 31 32 33 32 32 31 31 30 30 30 28 27 25 23 22 20 20 21 22 23 22 20 22 25 24 21 23 24 20 17 18 19 19 17 18 21 21 21 19 16 15 16 18 18 18 18 17 16 16 16 17 16 14 12 10 9 7 8 11 11
4 4 2 2 3 4 5 3 4 0 4 4 4 5 11 13 12 17 21 17 21 30 30 33 35 34 36 38 40 41 39 39 38 37 36 35 34 33 34 35 35 34 32 32 31 31 30 29 28 26 24 23 21 21 22 21 23 23 20 23 26 24 22 24 24 20 17 17 18 19 20 21 23 24 22 18 16 16 16 17 18 17 17 18 19 19 18 16 15 13 9 6 8 9 10 11 11
2 4 3 2 2 2 3 4 4 1 2 3 4 6 9 10 9 15 23 21 25 33 34 36 37 36 40 42 42 41 41 41 40 38 38 36 35 34 35 37 37 35 34 33 32 32 32 30 29 27 26 24 23 22 22 23 25 25 24 25 25 25 25 25 23 22 20 19 19 20 22 24 24 22 20 19 19 17 16 17 17 18 19 19 18 17 16 15 13 11 8 6 6 8 10 11 11
3 4 6 4 4 5 5 3 4 2 3 2 2 7 7 6 8 11 12 9 17 27 28 31 35 36 39 41 41 40 41 41 40 39 37 36 35 34 35 36 37 37 36 35 33 33 33 31 30 27 26 25 24 24 24 26 27 27 27 28 28 29 29 27 26 26 24 20 19 20 22 24 22 20 20 21 20 18 18 17 18 20 21 19 16 13 13 12 11 9 8 7 6 6 7 9 10
4 5 9 9 7 6 3 3 5 4 4 2 1 4 6 4 5 9 5 4 11 17 16 23 29 30 32 36 37 38 37 37 36 36 36 35 33 32 33 35 36 37 36 35 34 34 33 31 29 27 26 26 25 25 26 28 28 28 29 29 30 30 29 26 26 25 23 20 19 20 22 23 22 21 22 21 21 19 19 19 21 21 20 19 16 14 12 10 10 9 8 8 7 6 6 7 8
3 4 7 9 6 4 3 1 2 1 4 3 2 1 6 5 4 8 6 7 13 12 13 22 28 30 33 35 36 36 34 34 33 33 33 33 32 31 31 33 34 35 35 36 36 35 33 31 29 27 26 26 26 25 26 28 27 27 28 29 28 27 26 25 23 21 20 19 20 22 23 24 23 23 23 22 21 20 20 22 22 20 18 18 16 14 12 10 10 10 9 9 9 7 7 6 6
3 3 4 6 7 6 5 4 3 3 3 3 3 4 4 7 6 6 5 8 13 12 14 19 24 30 33 33 33 33 31 30 29 29 28 28 29 29 29 30 30 32 34 36 36 35 33 32 29 28 27 27 27 25 26 28 28 28 29 28 27 27 27 25 23 22 21 20 21 23 25 25 24 24 23 23 22 22 23 24 22 20 18 17 15 14 12 11 11 11 11 11 10 9 8 6 5
4 3 5 6 6 5 5 5 3 1 4 4 3 5 2 7 7 3 1 5 10 12 14 15 18 23 26 25 25 24 23 22 20 20 19 20 22 24 25 26 28 31 33 34 34 34 33 32 29 28 28 26 26 26 25 27 29 30 29 27 27 28 28 25 24 23 21 21 22 24 25 25 25 25 24 24 24 25 25 23 21 20 19 16 15 14 14 13 12 11 10 10 11 10 8 7 6
4 6 7 6 5 5 5 4 2 3 3 4 6 7 3 6 6 1 1 3 8 11 12 12 16 20 19 17 15 14 14 13 11 11 11 12 14 16 19 23 26 30 31 31 32 33 33 32 30 29 28 27 27 27 26 27 30 32 30 28 27 27 26 25 24 22 20 22 24 25 25 26 26 26 26 27 27 27 25 22 21 20 19 17 16 15 15 15 14 13 12 11 11 10 8 8 7
10 8 6 7 5 4 3 2 4 3 4 4 7 10 5 4 5 3 4 4 6 8 7 9 14 16 14 11 10 9 9 7 7 7 7 8 10 12 16 21 25 28 30 31 32 33 33 32 31 30 28 28 28 28 27 27 30 33 33 31 29 26 26 26 26 22 20 25 27 26 27 27 27 28 29 30 29 28 25 23 22 21 20 18 17 17 16 15 15 14 14 13 13 11 9 8 8
8 4 4 4 3 4 4 3 3 2 5 3 2 5 3 5 7 4 6 7 6 7 6 7 10 14 14 11 9 8 7 7 7 7 7 8 9 11 14 19 24 27 30 31 32 33 34 33 32 30 29 29 29 29 29 28 30 32 33 33 31 29 29 29 28 24 22 26 29 28 29 29 30 31 32 32 30 28 26 25 24 23 21 20 19 18 18 17 16 15 15 15 13 12 10 9 8
4 4 6 4 2 3 3 3 0 2 7 2 2 1 2 8 8 8 12 13 11 10 12 13 14 17 20 18 14 13 12 12 10 9 10 11 11 12 14 18 22 27 30 31 32 33 33 33 33 32 31 30 29 30 31 29 30 30 29 31 31 31 31 29 26 23 21 26 30 30 30 31 33 34 34 33 30 29 28 27 25 24 23 21 20 20 19 18 17 16 16 15 13 12 11 10 9
5 5 6 4 2 2 4 4 1 4 6 2 3 3 3 6 6 11 18 19 18 16 20 24 24 26 29 28 24 21 20 19 16 16 17 18 17 16 16 18 21 25 28 30 31 32 33 34 34 33 32 30 29 30 32 32 31 29 29 30 30 32 32 26 22 21 21 26 31 31 31 32 34 36 34 33 31 30 29 28 26 25 23 22 22 21 20 19 18 17 15 14 13 12 11 10 8
6 4 5 5 5 5 5 3 3 5 4 3 2 2 4 4 3 8 14 18 21 22 26 28 30 34 35 35 33 30 28 25 23 23 23 22 21 19 18 19 20 23 26 29 31 32 34 35 35 34 33 31 29 30 32 34 33 31 30 31 30 32 31 25 22 22 23 27 31 31 31 32 35 35 33 33 32 31 30 29 27 26 24 23 22 20 20 19 17 16 15 14 13 12 10 9 8
3 3 4 4 5 5 1 3 5 3 3 4 2 4 5 5 6 9 9 12 16 19 22 23 28 33 32 34 35 31 30 28 25 23 21 20 20 19 19 19 20 23 24 27 30 31 34 35 35 35 33 31 30 30 32 34 34 32 31 32 33 32 29 25 25 24 25 28 30 30 31 33 35 35 33 33 32 31 30 29 28 26 24 23 21 20 19 18 17 16 15 14 13 12 10 9 9
2 3 4 4 4 6 3 2 1 4 2 4 2 5 6 3 7 10 8 10 10 11 15 18 25 29 25 27 30 26 25 24 21 19 17 17 18 19 19 19 21 23 24 27 28 30 32 34 35 35 34 33 31 31 32 34 35 34 32 33 34 31 28 28 28 26 26 29 29 29 31 34 36 35 33 33 32 32 31 29 28 26 24 23 21 20 19 18 17 16 15 14 13 11 10 10 10
5 4 6 3 2 3 3 2 2 2 4 5 2 6 6 3 6 5 2 7 10 11 12 15 23 24 22 25 27 23 23 21 17 16 14 14 16 17 18 19 21 22 24 25 27 29 31 33 34 35 35 34 32 31 33 34 36 37 35 34 33 30 29 30 29 27 27 30 31 31 32 35 37 36 34 34 33 32 31 30 28 26 24 22 21 21 20 19 18 17 16 14 13 12 11 11 10
5 4 4 4 2 2 2 3 3 2 3 4 4 6 5 5 6 3 3 8 11 13 12 11 16 20 22 27 28 24 21 16 12 10 10 10 12 14 16 18 19 21 23 25 26 28 31 32 34 35 35 33 31 31 33 35 36 37 35 33 32 32 32 32 31 29 29 31 32 32 34 37 38 36 35 34 33 32 32 30 28 25 24 22 22 21 20 19 18 17 15 14 13 12 11 10 10
3 2 2 2 2 4 3 3 4 3 3 3 4 6 5 7 7 6 9 11 11 11 9 8 13 19 24 27 26 21 14 9 6 5 7 8 8 11 13 15 17 19 21 24 26 29 31 32 34 36 36 34 33 33 33 35 35 35 35 34 33 33 33 32 30 30 31 32 32 33 35 38 39 37 36 34 33 33 32 30 27 25 24 23 22 21 20 19 18 16 15 13 12 11 10 9 9
4 3 4 3 1 2 1 1 2 3 3 2 1 5 10 8 6 8 11 11 11 11 9 10 13 18 23 23 21 16 8 2 3 5 8 8 8 8 10 12 15 17 20 23 26 28 30 32 34 36 37 36 36 35 34 35 35 35 36 36 34 34 34 32 31 31 32 32 33 35 36 39 39 38 36 35 34 33 31 29 27 25 24 23 22 21 20 19 17 16 14 13 12 10 9 9 8
8 8 9 9 7 4 3 3 1 2 3 4 3 4 13 8 5 8 10 8 9 10 9 10 14 19 22 19 13 8 4 1 4 7 9 9 8 7 8 11 14 17 20 22 25 27 30 32 34 36 38 38 37 35 35 36 36 36 36 35 35 35 34 32 32 33 32 33 34 36 38 40 40 38 36 35 34 33 31 28 26 25 24 23 22 20 19 18 16 15 13 12 11 10 9 8 7
Wind_Direction
136 124 118 119 115 110 82 92 96 23 70 79 322 174 232 223 324 274 252 252 260 250 210 191 147 152 153 111 164 122 78 109 160 132 163 159 158 164 168 167 161 160 159 156 152 148 148 139 137 139 138 133 121 113 111 116 117 118 117 114 116 122 132 126 118 109 101 95 89 83 75 69 61 55 61 64 59 55 50 45 45 50 54 56 57 59 61 62 63 65 68 72 74 77 74 70 69
138 133 124 124 111 118 96 61 95 344 53 97 252 188 251 308 345 225 218 230 186 129 136 145 140 150 152 92 109 89 65 71 107 121 138 152 158 163 165 166 166 164 160 159 153 146 146 141 141 143 141 133 121 116 113 119 121 120 121 122 125 125 128 126 120 110 97 89 84 80 74 67 61 59 67 69 60 54 51 51 54 57 57 59 60 63 66 67 67 70 73 77 80 83 83 81 79
144 143 134 130 97 92 100 53 74 77 78 158 253 235 231 181 218 230 221 181 125 113 116 126 127 142 149 83 83 86 88 96 113 124 138 152 160 165 167 170 168 164 162 158 151 148 152 147 145 143 140 133 123 118 117 123 125 123 124 123 124 125 127 125 119 107 92 84 78 74 69 66 64 67 73 72 65 61 59 60 60 58 57 59 63 67 70 71 72 75 79 84 86 88 88 87 86
147 149 139 126 92 75 75 42 100 121 113 191 246 246 219 185 211 236 183 144 128 111 110 123 113 143 178 165 122 103 111 120 125 134 143 153 162 167 169 173 170 165 163 159 154 156 159 153 147 144 142 138 130 122 120 122 125 125 121 118 118 122 129 129 121 109 96 84 77 73 69 69 70 73 77 77 74 69 66 64 60 57 56 59 64 69 72 74 76 77 82 87 89 90 88 86 85
147 148 141 126 94 73 88 71 98 106 187 180 176 245 230 204 191 187 162 155 148 94 70 114 105 142 141 152 144 122 135 135 133 142 149 155 164 168 171 176 173 166 162 163 161 161 165 160 152 151 151 148 139 128 122 120 124 127 123 123 122 120 126 127 122 111 101 91 83 77 74 72 73 78 81 82 78 72 67 62 58 55 55 58 64 72 75 77 79 81 84 87 89 90 89 87 85
135 138 127 108 90 95 115 94 128 151 224 169 152 246 231 201 170 158 168 178 200 272 325 310 167 165 137 143 154 138 138 139 141 147 152 157 165 168 172 175 174 169 163 165 166 167 172 163 156 159 158 150 146 136 128 124 122 125 125 129 129 121 121 121 120 113 102 94 85 79 78 76 77 83 85 84 79 73 67 61 56 55 56 57 62 69 75 79 82 84 85 87 88 88 88 87 85
131 131 105 97 73 62 102 118 179 190 202 172 181 237 220 185 161 155 166 188 231 254 259 259 179 165 161 146 141 147 142 143 149 150 152 156 166 168 172 174 172 172 166 167 170 170 173 166 161 164 163 154 150 145 136 132 124 123 124 128 127 119 117 119 119 115 108 99 91 83 81 81 81 87 91 87 79 73 68 62 57 56 58 59 61 65 71 76 80 83 84 85 86 86 85 83 81
130 122 93 100 44 28 89 111 187 202 176 217 247 243 206 171 159 157 167 186 219 228 229 205 169 168 222 182 150 161 154 149 152 150 152 155 165 165 168 172 169 170 169 172 174 172 172 172 172 169 166 164 158 153 151 145 135 131 129 128 125 120 118 119 120 119 116 109 100 92 88 86 85 88 95 92 80 74 70 64 58 58 61 62 62 65 69 74 78 80 81 82 83 83 82 81 79
120 107 94 93 71 40 51 67 184 241 263 252 251 242 189 167 162 160 170 202 213 207 203 179 166 289 221 199 197 178 172 159 156 153 153 157 167 167 166 172 173 171 174 177 178 177 176 177 182 175 169 171 167 161 164 159 145 143 141 137 135 132 126 123 127 128 124 116 106 99 92 89 89 89 93 92 82 75 73 68 61 60 64 64 63 65 70 74 78 80 80 81 81 81 81 80 79
103 94 109 83 81 54 24 243 226 242 247 256 256 228 171 170 171 170 175 190 206 199 187 177 196 260 197 205 216 183 185 173 163 158 159 162 167 169 167 173 177 176 178 180 179 181 183 182 180 176 174 177 178 173 173 170 156 155 154 150 149 145 138 133 136 136 131 121 109 102 94 91 92 90 90 91 84 75 72 70 64 63 66 67 65 65 69 73 76 78 79 79 79 79 78 77 76
87 72 105 79 81 102 176 203 256 265 266 285 267 203 169 175 173 176 177 170 186 177 178 181 232 215 181 225 219 190 190 184 177 167 163 167 168 169 170 173 179 181 180 182 183 183 187 188 180 174 179 184 187 186 184 182 169 166 165 161 157 152 149 144 142 141 136 127 116 108 99 97 96 93 92 91 86 79 74 72 68 65 68 70 67 66 69 72 75 76 76 76 75 74 73 72 70
95 43 83 83 126 172 194 174 234 282 310 317 185 177 171 174 170 182 180 173 178 173 189 192 222 191 174 264 216 198 195 190 189 181 172 172 171 169 171 175 180 185 184 186 189 188 189 191 188 183 186 192 195 197 200 192 177 175 175 169 162 155 160 158 151 148 142 135 126 116 109 107 102 97 98 94 89 82 74 74 73 68 71 72 68 68 71 74 76 77 75 74 73 72 70 68 67
128 131 93 102 156 155 153 151 234 315 322 260 180 167 166 177 189 203 183 171 176 175 201 201 208 189 190 262 213 203 198 196 194 191 185 177 178 176 175 178 182 187 187 190 193 195 194 190 194 194 196 202 202 205 209 203 191 186 183 175 171 167 172 171 163 160 152 144 136 128 123 120 112 107 105 100 96 87 74 75 76 74 73 72 70 69 73 78 80 80 78 76 73 70 68 66 64
141 140 106 114 123 126 148 136 221 181 251 247 188 170 169 184 209 212 188 172 186 187 198 203 197 183 213 237 224 213 199 197 197 197 195 186 187 185 184 182 184 188 188 192 194 199 200 195 198 197 198 203 204 210 205 198 198 195 188 182 183 185 184 182 175 169 163 156 151 143 133 131 126 121 119 115 109 88 77 79 77 76 75 74 73 73 76 81 84 83 80 78 74 69 67 65 63
145 127 92 106 81 155 174 164 158 160 231 220 172 179 172 190 217 211 199 189 202 201 193 194 187 181 223 208 227 221 202 201 199 201 200 196 197 194 194 191 191 192 187 190 195 200 202 201 204 202 201 203 205 212 207 197 201 203 195 190 194 199 195 193 190 179 173 174 174 162 153 150 141 139 135 129 131 110 94 91 80 75 73 72 74 76 78 81 84 83 80 78 73 68 65 64 62
144 125 73 92 134 199 182 167 129 136 245 202 166 174 163 194 207 194 201 202 208 206 199 191 191 200 217 202 224 228 207 207 202 205 204 203 208 203 201 200 201 201 188 187 198 203 200 201 210 211 208 208 208 210 216 212 209 209 204 199 199 203 204 204 202 193 185 187 193 183 180 185 171 163 151 142 149 157 121 101 88 81 70 69 74 77 80 81 83 82 80 78 74 68 65 62 59
135 110 67 99 163 197 187 174 172 166 234 209 174 177 161 173 187 180 197 206 210 208 205 200 202 212 217 207 222 236 220 214 208 209 207 208 216 213 209 210 208 210 203 193 201 204 199 201 211 217 215 215 213 209 217 221 215 213 213 209 205 207 208 209 209 206 199 197 203 198 194 200 198 187 172 165 166 177 159 122 107 97 79 72 78 82 84 83 83 85 82 80 78 73 67 62 58
119 100 98 159 179 195 189 179 185 164 183 193 181 182 175 166 178 178 186 206 218 220 216 216 216 219 224 226 232 242 231 221 218 215 213 213 219 220 220 223 215 215 218 207 207 209 205 208 213 218 220 219 220 216 218 222 219 217 216 213 215 215 210 211 213 213 210 207 209 205 203 208 211 206 194 189 185 185 177 179 169 121 104 85 86 91 89 81 80 82 83 83 83 79 70 63 59
91 100 118 200 196 200 193 179 181 148 81 177 175 181 185 184 179 179 190 213 210 220 226 224 227 228 229 235 240 246 239 225 223 221 220 220 222 225 228 235 231 225 229 219 211 214 214 215 215 218 220 222 224 224 224 223 222 221 218 217 223 222 215 217 215 212 213 213 210 207 207 211 214 215 208 202 194 189 191 199 199 161 146 125 94 100 99 89 82 78 79 80 83 81 71 64 59
74 102 133 235 207 208 199 184 185 171 100 160 170 182 189 191 180 182 199 217 210 222 227 223 230 235 235 237 241 246 243 230 226 225 225 224 226 229 231 238 243 242 244 236 221 219 220 220 217 216 220 223 226 233 233 228 225 223 222 224 230 226 219 218 217 215 215 215 213 208 209 212 217 220 215 212 203 191 190 199 207 190 171 170 117 103 107 107 100 89 79 68 79 77 67 64 58
100 111 163 226 182 159 186 187 198 201 169 162 172 173 188 197 186 190 190 184 239 237 234 233 240 246 243 242 246 249 245 236 229 228 229 229 230 233 235 238 243 246 248 247 236 228 228 231 227 222 225 227 232 236 229 223 227 226 224 229 238 236 227 222 219 217 215 215 216 214 211 211 216 222 219 219 210 194 192 197 206 199 178 189 147 110 111 117 120 110 109 97 91 73 60 61 49
90 59 222 169 139 102 161 181 202 200 181 165 168 167 190 191 192 205 194 195 237 242 246 248 253 255 248 246 249 249 245 241 235 232 232 233 235 237 241 242 243 245 245 246 242 235 232 235 235 231 232 233 236 230 210 208 220 226 228 225 228 232 230 229 225 218 216 216 216 216 212 210 215 220 218 215 209 201 204 201 201 196 182 196 185 133 117 118 130 147 160 130 90 70 55 51 34
99 359 241 152 130 54 110 168 187 186 184 173 172 182 193 183 204 222 213 228 240 243 253 254 258 253 245 244 244 245 245 245 244 241 239 237 239 242 246 249 249 248 246 242 236 232 229 228 230 230 232 235 237 226 210 208 212 219 224 218 219 227 228 230 231 222 218 218 219 215 208 209 214 216 213 213 213 210 217 208 197 194 189 200 204 169 146 126 239 241 225 108 96 68 54 41 21
100 107 198 175 183 9 92 111 157 166 189 186 177 188 196 195 215 237 233 242 246 248 252 250 254 253 246 245 244 248 249 249 249 247 244 242 242 242 245 247 247 246 243 239 233 227 224 224 225 225 228 233 237 232 222 216 214 215 219 219 221 231 233 235 239 232 224 223 226 223 213 213 218 216 215 222 224 217 221 209 195 194 193 204 207 185 197 277 284 263 223 159 146 71 43 31 18
63 141 195 175 178 335 149 128 156 155 179 185 185 196 205 222 232 255 251 252 253 252 254 252 252 252 252 250 251 253 251 250 248 244 242 242 242 241 241 242 242 241 237 234 232 227 224 225 224 223 224 228 234 236 231 225 223 221 225 227 223 229 235 239 241 235 230 228 228 229 224 221 222 220 220 229 225 215 217 205 198 202 195 199 204 198 223 268 266 249 203 175 170 166 357 9 11
45 135 157 148 95 43 152 176 171 179 199 183 207 224 234 246 262 267 259 259 258 254 255 254 254 254 254 255 256 255 255 253 249 245 243 241 242 242 242 243 243 239 234 230 229 230 229 228 227 227 225 225 227 233 236 232 229 228 229 231 231 232 233 234 238 235 234 234 232 233 235 235 234 230 227 229 219 211 214 205 202 207 200 198 203 208 218 240 251 234 202 187 183 184 258 355 1
103 111 119 98 48 23 155 193 193 212 228 221 226 252 283 249 257 261 258 262 259 255 254 253 254 254 254 255 255 254 254 252 249 246 242 240 240 242 242 243 244 239 232 229 228 231 232 231 231 231 229 227 227 230 237 236 233 232 226 231 239 236 231 235 237 229 225 228 230 232 232 232 236 236 226 218 210 209 216 211 209 209 204 200 202 210 210 217 236 222 199 184 179 177 205 353 357
92 100 128 29 8 336 286 237 237 229 237 255 229 276 295 219 166 247 251 257 260 260 257 255 255 255 255 253 252 251 251 248 246 244 241 242 242 242 244 244 245 241 233 229 229 230 232 233 232 233 233 231 232 234 237 237 235 230 217 219 226 224 235 241 224 210 214 220 225 227 223 223 233 233 222 213 205 209 217 218 216 210 204 200 200 205 204 215 229 209 185 174 171 161 32 343 341
77 77 154 332 3 350 301 290 242 217 222 252 154 303 283 210 227 245 252 256 258 260 258 258 257 256 256 253 252 249 249 245 243 245 243 244 243 242 242 242 244 242 236 231 230 231 232 235 234 236 237 235 238 239 239 237 232 228 216 211 215 223 233 225 211 215 223 226 233 235 229 224 227 222 215 216 207 207 217 216 215 213 210 206 203 205 205 209 214 195 170 164 167 141 335 312 305
84 55 81 338 5 340 306 19 207 189 195 170 130 273 270 240 241 244 252 256 255 258 257 258 259 259 258 255 254 251 249 246 245 247 245 243 242 242 241 240 241 241 240 235 233 233 234 237 238 237 239 239 240 238 240 236 223 221 224 221 220 224 219 209 214 230 226 222 232 235 227 221 221 216 210 216 206 203 216 215 212 213 214 210 203 202 202 196 191 185 169 172 196 233 268 258 210
71 26 40 28 11 279 297 31 156 159 197 176 139 258 264 266 260 250 252 253 253 256 257 259 260 260 260 257 257 256 252 249 250 248 245 243 242 242 242 242 243 243 243 241 237 236 237 240 240 239 239 240 240 239 241 238 220 214 222 227 221 216 214 216 228 236 221 210 221 235 239 224 215 215 217 223 218 209 215 212 206 209 213 212 200 189 192 188 182 191 199 210 223 230 228 202 187
32 45 320 353 150 268 307 317 161 149 188 172 151 258 266 272 272 264 252 248 245 252 257 259 258 259 259 260 260 260 258 252 251 249 245 243 242 243 244 246 248 246 244 243 240 238 238 241 239 238 239 239 240 240 240 240 231 220 217 214 212 212 218 221 220 220 207 202 227 244 241 216 202 211 222 226 222 210 208 207 210 214 209 207 192 179 185 195 198 204 210 214 214 205 195 183 179
3 68 231 261 163 279 318 340 191 142 126 181 196 251 272 280 272 261 243 249 244 250 261 261 259 261 260 260 261 262 262 256 253 251 247 245 245 246 247 249 251 249 245 242 241 239 239 241 239 238 238 238 237 236 237 236 225 220 220 211 213 219 215 206 201 205 207 220 243 233 217 208 204 215 214 208 206 207 211 216 220 206 185 190 188 181 187 197 199 202 199 189 189 190 181 176 166
320 20 206 233 202 216 291 316 267 89 93 222 230 241 255 267 269 265 276 283 262 253 263 265 264 265 263 263 263 263 263 260 257 254 251 248 248 249 249 251 252 250 246 242 240 239 239 240 240 239 237 236 235 229 228 227 212 212 223 216 211 213 208 208 216 222 227 239 238 214 206 217 225 221 209 204 206 215 223 224 218 191 181 188 189 185 187 187 183 184 188 178 169 177 173 166 156
194 173 156 254 239 219 254 276 235 116 57 244 236 258 261 266 271 270 273 275 265 260 265 267 267 266 265 264 263 263 262 261 260 258 256 252 250 250 250 251 251 250 247 242 239 239 239 238 238 238 237 233 230 225 220 221 215 210 212 206 201 205 212 222 228 225 224 228 224 210 207 221 223 214 214 220 221 224 226 218 203 185 183 187 186 183 181 180 176 173 186 180 162 164 170 161 154
154 167 147 165 211 251 239 246 256 184 156 249 235 246 263 267 270 271 274 270 260 263 266 266 266 266 265 264 263 263 262 262 263 262 259 255 252 251 250 249 249 249 247 243 239 239 239 238 237 236 235 231 225 224 217 211 215 212 204 205 210 211 214 218 215 215 217 217 220 218 215 221 216 204 206 218 227 232 220 200 186 178 179 180 181 182 178 178 173 165 174 176 158 155 163 161 160
117 124 118 156 199 268 246 248 290 188 180 257 238 238 264 268 268 270 272 270 257 258 261 262 264 265 265 265 265 264 264 265 267 265 261 257 253 251 249 248 247 246 244 242 239 238 239 238 237 236 234 229 223 221 213 209 217 219 209 211 213 210 214 216 212 213 213 210 215 217 216 219 216 210 215 222 228 224 198 180 176 176 175 174 175 177 172 167 163 161 163 163 156 154 163 169 171
92 121 135 219 215 258 250 233 306 210 180 266 273 263 266 265 269 272 269 258 248 251 253 258 261 264 265 265 266 266 266 266 266 265 263 259 255 251 248 247 246 244 242 240 238 237 239 237 235 234 231 228 222 215 212 213 217 218 216 215 208 205 215 218 211 209 211 212 214 215 220 220 215 215 222 223 216 200 180 171 172 174 174 171 170 170 166 160 157 162 158 154 162 173 179 179 175
82 115 134 253 241 273 283 295 328 6 186 264 309 286 266 265 271 272 265 252 253 256 253 257 261 262 265 266 267 268 268 268 266 265 263 260 256 251 248 246 245 243 241 240 238 237 238 236 234 231 227 225 219 212 212 211 210 214 221 216 207 209 218 213 209 214 221 227 225 222 229 227 218 216 217 208 193 182 173 168 172 177 175 169 165 163 161 157 154 158 159 159 172 181 185 181 177
118 135 149 235 245 274 283 292 318 295 205 274 312 295 273 266 266 267 264 255 259 263 259 259 260 260 263 265 266 267 269 270 270 268 265 261 257 252 248 246 245 242 240 239 238 237 237 236 234 229 224 221 216 212 211 207 207 214 214 211 217 225 220 212 217 226 225 228 229 226 229 227 217 210 200 188 179 177 174 175 180 177 167 162 163 161 155 152 152 157 165 175 179 180 182 179 177
246 187 184 209 221 217 234 289 320 319 333 348 312 301 286 262 252 257 269 270 264 266 263 260 259 259 262 264 265 265 266 269 271 271 269 265 260 255 251 248 246 244 242 242 241 238 237 235 232 229 222 217 215 212 208 206 209 212 210 212 221 221 214 215 223 223 217 221 225 225 225 219 206 194 185 180 177 177 180 183 183 172 161 160 166 163 152 150 155 163 171 175 174 174 176 177 177
280 231 205 211 215 213 227 349 3 352 329 330 10 294 283 288 258 251 281 321 274 268 265 262 260 260 261 263 266 267 267 269 270 271 270 267 264 258 252 248 246 246 245 244 242 238 236 234 231 229 222 216 215 211 206 208 211 214 216 216 213 209 210 217 219 215 212 217 226 228 221 206 193 186 182 178 178 180 184 184 178 169 160 160 164 163 160 159 163 169 173 172 172 169 168 174 173
279 255 210 209 194 173 190 106 43 290 272 267 107 217 278 294 259 252 276 283 273 275 271 265 262 261 260 261 265 268 269 270 271 271 269 267 264 258 252 249 247 247 244 241 238 234 232 232 230 227 222 217 215 211 207 207 210 214 216 213 213 217 220 218 214 215 219 226 231 229 214 196 187 185 181 179 180 183 185 181 174 167 163 162 162 165 167 168 171 173 172 169 169 168 166 172 170
239 257 162 164 160 175 187 153 176 238 275 275 148 141 280 287 254 249 271 273 278 283 274 269 263 260 261 263 265 268 270 273 273 272 269 267 264 260 256 252 249 246 242 238 235 232 230 229 228 226 222 216 214 213 209 208 211 214 212 210 219 228 226 220 220 224 228 230 225 217 205 192 187 184 180 182 183 183 183 178 172 169 169 169 165 168 174 177 177 174 172 168 167 169 166 170 179
249 209 118 131 147 157 136 124 176 302 349 297 201 142 242 277 268 265 265 263 274 274 268 269 268 267 270 271 269 270 270 269 269 268 268 266 264 261 258 254 249 245 241 240 237 233 229 226 226 223 220 215 212 213 211 208 210 212 210 213 222 225 220 219 222 224 226 221 211 206 200 191 187 184 182 184 183 182 181 178 175 173 174 175 173 174 179 182 180 177 176 169 167 173 170 171 187
186 137 96 83 83 81 89 110 120 63 331 264 186 162 203 274 270 210 159 256 257 260 264 269 273 275 278 279 274 266 261 258 261 266 267 267 264 261 255 248 245 242 241 240 237 231 226 225 224 222 220 215 210 212 212 209 210 212 212 215 219 221 218 215 215 217 219 212 205 204 199 192 189 186 184 184 182 181 181 179 179 179 180 182 181 181 183 184 180 179 179 173 172 180 179 179 190
137 118 77 61 45 42 60 54 77 79 286 266 185 186 187 274 271 206 202 228 220 231 256 271 276 278 277 274 268 261 255 253 262 270 269 267 263 255 245 241 239 239 238 237 235 230 225 223 223 223 221 215 211 211 211 210 212 214 216 215 215 219 218 215 214 217 217 210 205 204 201 196 191 187 184 182 182 181 182 182 183 183 184 187 187 185 187 187 182 181 181 177 178 182 186 190 196
120 94 88 81 357 8 29 349 45 133 247 275 211 211 187 239 254 241 246 259 234 215 233 254 266 275 275 266 255 257 264 266 266 267 269 268 265 259 248 240 235 233 233 233 232 228 224 222 220 221 220 216 212 210 210 212 211 213 217 216 217 222 219 214 217 223 223 212 206 205 204 199 192 188 185 183 183 183 184 185 186 187 188 190 191 188 188 188 186 184 184 181 180 183 188 195 200
95 98 113 101 328 348 345 285 135 221 246 238 140 183 238 244 251 259 263 266 251 224 227 241 249 261 269 268 261 258 264 272 273 267 268 267 267 267 259 247 236 231 231 231 231 228 223 221 219 219 220 217 212 209 210 211 209 212 215 214 219 223 215 211 218 228 228 216 209 208 206 201 193 188 186 185 185 185 186 187 188 190 191 192 193 191 189 190 189 187 186 183 183 186 192 197 202
160 147 142 140 149 197 252 258 265 267 264 243 164 170 245 269 263 244 243 249 249 242 245 252 257 261 267 270 268 266 267 271 272 269 272 274 272 270 263 253 241 235 232 230 231 229 224 221 218 217 218 217 213 210 209 208 209 211 212 216 223 217 208 210 223 233 232 219 211 210 209 203 195 191 188 187 187 188 188 189 191 193 194 195 194 192 191 192 191 190 188 187 188 192 198 201 205
183 158 138 161 169 179 215 218 214 253 281 283 235 191 203 222 259 242 241 255 260 257 256 258 262 264 266 268 268 267 267 270 272 272 275 277 274 269 261 254 245 239 234 231 230 229 225 222 219 217 217 217 216 212 207 207 209 210 213 219 218 209 207 217 230 237 231 218 212 210 211 206 198 194 192 190 190 191 191 191 194 195 195 196 196 194 195 195 194 194 192 192 195 199 204 207 212
207 119 120 197 194 156 163 202 180 183 313 302 247 228 215 211 273 269 255 265 266 262 262 262 261 260 262 264 263 263 267 272 276 277 278 275 270 264 256 252 246 239 234 232 231 228 226 223 220 219 218 218 218 213 208 208 209 211 217 216 207 205 214 223 230 234 225 215 214 214 212 207 201 197 196 195 194 194 194 195 196 196 196 197 197 196 198 199 199 200 197 198 201 204 209 215 222
163 142 178 214 174 121 110 235 113 87 258 275 232 251 278 312 283 264 247 260 271 272 269 260 254 255 258 260 261 265 269 274 280 283 283 274 265 260 255 250 246 241 235 232 231 229 228 225 222 220 218 217 218 214 210 209 209 211 215 210 204 211 221 225 230 231 219 212 215 216 214 208 203 200 200 199 198 196 197 198 198 198 197 197 198 198 200 201 202 202 200 201 205 209 214 219 224
129 184 201 172 114 100 109 205 353 43 246 271 261 251 279 300 278 288 275 259 264 262 258 255 257 258 258 259 262 268 271 277 287 289 284 274 265 259 254 250 246 243 239 236 234 233 230 227 224 221 220 220 220 215 210 211 210 208 210 210 212 220 226 227 230 226 217 212 214 215 214 209 205 203 203 202 201 200 200 200 200 199 198 198 200 201 201 202 203 202 200 201 205 210 215 219 222
129 185 182 127 157 199 123 165 199 222 243 275 290 283 270 224 235 270 225 228 241 248 251 256 259 257 257 259 259 263 269 281 295 293 283 274 267 262 257 253 248 243 240 236 234 233 231 228 225 223 224 225 224 219 212 212 213 209 211 215 220 224 224 225 227 222 214 213 215 216 213 210 207 206 206 205 204 203 203 203 201 200 200 200 202 204 204 204 204 203 202 203 207 210 215 220 222
60 87 133 120 171 182 167 158 174 197 219 257 303 318 276 225 202 200 214 219 223 235 246 246 249 252 252 252 254 259 266 282 306 316 306 287 268 262 258 254 250 245 241 236 233 232 231 230 226 223 223 223 223 222 216 213 214 214 216 219 221 222 222 223 224 218 213 214 217 217 214 211 209 208 209 207 206 207 207 206 203 201 202 204 206 208 207 206 205 203 203 208 214 215 218 224 227
156 169 179 192 174 128 175 171 128 148 167 202 280 299 273 250 178 185 215 224 219 220 230 235 239 247 248 244 249 257 253 262 341 2 345 311 276 260 254 250 246 241 238 235 233 232 231 231 228 224 223 222 222 222 218 214 215 217 219 219 220 221 223 226 223 215 214 216 217 217 215 212 211 211 211 209 208 209 209 208 205 204 204 207 209 210 209 208 206 205 205 210 218 223 225 230 236
183 190 195 196 182 149 182 226 209 126 145 180 175 262 273 259 159 190 214 214 218 218 229 246 235 232 243 247 242 236 212 163 18 16 358 327 296 273 259 250 244 238 236 234 232 232 231 230 229 226 224 225 224 223 219 215 215 217 219 220 220 221 224 225 220 215 215 216 217 217 215 213 212 212 212 211 211 211 210 208 207 207 207 208 210 211 209 208 207 207 209 214 221 226 230 237 247